Weather History for Marrakech, Morocco

Change the Weather History Date:

Sunday, October 28, 2012

  Actual Average Record
Temperature  
Mean Temperature 66 °F -  
Max Temperature 75 °F 71 °F 96 °F (2001)
Min Temperature 56 °F 50 °F 51 °F (2011)
Growing Degree Days 16 (Base 50)    
Moisture  
Dew Point 55 °F    
Average Humidity 72    
Maximum Humidity 100    
Minimum Humidity 32    
Precipitation  
Precipitation 0.00 in 0.05 in - ()
Sea Level Pressure  
Sea Level Pressure 29.97 in    
Wind  
Wind Speed 3 mph ()    
Max Wind Speed 7 mph    
Max Gust Speed -    
Visibility 5.7 miles    
Events      
Averages and records for this station are not official NWS values.
T = Trace of Precipitation, MM = Missing Value Source: Averaged Metar Reports

Daily Weather History Graph

Daily Weather History Graph

Search for Another Location

Airport:

Trip Planner

Search our weather history database for the weather conditions in past years. The results will help you decide how hot, cold, wet, or windy it might be!

Date:

Astronomy

Oct. 28, 2012 Rise Set
Actual Time 6:45 AM WET 5:46 PM WET
Civil Twilight 6:20 AM WET 6:11 PM WET
Nautical Twilight 5:51 AM WET 6:39 PM WET
Astronomical Twilight 5:23 AM WET 7:08 PM WET
Moon 4:55 PM WET (10/28) 5:27 AM WET (10/28)
Length of Visible Light 11h 50m
Length of Day
11h 00m
Waxing Gibbous, 98% of the Moon is Illuminated
Oct 28
Waxing Gibbous
Oct 29
Full
Nov 7
Last Quarter
Nov 13
New
Nov 20
First Quarter

Hourly Weather History & Observations

Time (WET) Temp. Dew Point Humidity Pressure Visibility Wind Dir Wind Speed Gust Speed Precip Events Conditions
12:00 AM 60 °F 58 °F 89% 29.97 in 6 mi SW 4.6 mph - -   Partly Cloudy
12:00 AM 60.8 °F 57.2 °F 88% 29.98 in 6.2 mi SW 4.6 mph - N/A   Scattered Clouds
12:30 AM 59.0 °F 57.2 °F 94% 29.98 in 6.2 mi Variable 2.3 mph - N/A   Scattered Clouds
1:00 AM 59.0 °F 57.2 °F 94% 29.98 in 6.2 mi WSW 3.5 mph - N/A   Scattered Clouds
1:30 AM 57.2 °F 57.2 °F 100% 29.98 in 6.2 mi Calm Calm - N/A   Scattered Clouds
2:00 AM 59.0 °F 57.2 °F 94% 29.98 in 6.2 mi Calm Calm - N/A   Scattered Clouds
2:30 AM 57.2 °F 55.4 °F 94% 29.98 in 6.2 mi Calm Calm - N/A   Scattered Clouds
3:00 AM 58 °F 57 °F 94% 29.96 in 6 mi Calm Calm - -   Partly Cloudy
3:00 AM 57.2 °F 57.2 °F 100% 29.98 in 6.2 mi Calm Calm - N/A   Scattered Clouds
3:30 AM 57.2 °F 57.2 °F 100% 29.98 in 6.2 mi Calm Calm - N/A   Scattered Clouds
4:00 AM 59.0 °F 59.0 °F 100% 29.98 in 6.2 mi Calm Calm - N/A   Scattered Clouds
4:30 AM 59.0 °F 57.2 °F 94% 29.98 in 6.2 mi WSW 3.5 mph - N/A   Scattered Clouds
5:00 AM 57.2 °F 57.2 °F 100% 29.98 in 0.2 mi West 3.5 mph - N/A   Scattered Clouds
5:24 AM 57.2 °F 57.2 °F 100% 29.98 in 0.2 mi WSW 2.3 mph - N/A   Scattered Clouds
5:30 AM 57.2 °F 57.2 °F 100% 29.98 in 1.9 mi Calm Calm - N/A   Partly Cloudy
5:33 AM 57.2 °F 57.2 °F 100% 29.98 in 1.9 mi Calm Calm - N/A   Partly Cloudy
6:00 AM 57 °F 57 °F 98% 29.97 in 5 mi Calm Calm - -   Mist
6:00 AM 57.2 °F 57.2 °F 100% 29.98 in 5.0 mi Calm Calm - N/A   Unknown
6:30 AM 57.2 °F 57.2 °F 100% 29.98 in 5.0 mi Calm Calm - N/A   Unknown
7:00 AM 57.2 °F 57.2 °F 100% 29.98 in 5.6 mi East 3.5 mph - N/A   Unknown
7:30 AM 57.2 °F 57.2 °F 100% 29.98 in - East 2.3 mph - N/A   Clear
8:00 AM 59.0 °F 59.0 °F 100% 29.98 in 5.0 mi ENE 3.5 mph - N/A   Unknown
8:30 AM 60.8 °F 60.8 °F 100% 30.01 in - ENE 1.2 mph - N/A   Clear
9:00 AM 63 °F 59 °F 84% 29.99 in 6 mi East 4.6 mph - -   Scattered Clouds
9:00 AM 62.6 °F 59.0 °F 88% 30.01 in 6.2 mi East 3.5 mph - N/A   Scattered Clouds
9:30 AM 64.4 °F 59.0 °F 83% 30.01 in 6.2 mi ENE 3.5 mph - N/A   Scattered Clouds
10:00 AM 66.2 °F 59.0 °F 78% 30.01 in 6.2 mi East 4.6 mph - N/A   Scattered Clouds
10:30 AM 66.2 °F 59.0 °F 78% 30.01 in 6.2 mi NNE 3.5 mph - N/A   Scattered Clouds
11:00 AM 68.0 °F 57.2 °F 68% 30.01 in 6.2 mi North 3.5 mph - N/A   Scattered Clouds
11:30 AM 68.0 °F 55.4 °F 64% 30.01 in 6.2 mi North 3.5 mph - N/A   Scattered Clouds
12:00 PM 69 °F 53 °F 47% 29.95 in 6 mi North 4.6 mph - -   Scattered Clouds
12:00 PM 69.8 °F 53.6 °F 56% 30.01 in 6.2 mi North 4.6 mph - N/A   Scattered Clouds
12:30 PM 71.6 °F 53.6 °F 53% 29.98 in 6.2 mi NE 4.6 mph - N/A   Scattered Clouds
1:00 PM 71.6 °F 51.8 °F 50% 29.98 in 6.2 mi North 3.5 mph - N/A   Scattered Clouds
1:30 PM 71.6 °F 50.0 °F 46% 29.95 in 6.2 mi SW 3.5 mph - N/A   Scattered Clouds
2:00 PM 73.4 °F 50.0 °F 44% 29.95 in 6.2 mi Variable 2.3 mph - N/A   Scattered Clouds
2:30 PM 73.4 °F 50.0 °F 44% 29.95 in 6.2 mi ESE 3.5 mph - N/A   Scattered Clouds
3:00 PM 74 °F 50 °F 32% 29.89 in 6 mi NE 4.6 mph - -   Partly Cloudy
3:00 PM 75.2 °F 50.0 °F 41% 29.95 in 6.2 mi NE 4.6 mph - N/A   Scattered Clouds
3:30 PM 73.4 °F 48.2 °F 41% 29.95 in 6.2 mi ESE 3.5 mph - N/A   Scattered Clouds
4:00 PM 75.2 °F 48.2 °F 38% 29.95 in 6.2 mi Variable 2.3 mph - N/A   Scattered Clouds
4:30 PM 73.4 °F 48.2 °F 41% 29.95 in 6.2 mi Variable 2.3 mph - N/A   Scattered Clouds
5:00 PM 73.4 °F 48.2 °F 41% 29.95 in 6.2 mi Variable 2.3 mph - N/A   Mostly Cloudy
5:30 PM 73.4 °F 48.2 °F 41% 29.95 in 6.2 mi Variable 2.3 mph - N/A   Mostly Cloudy
5:46 PM 72 °F 50 °F 34% 29.91 in 6 mi West 4.6 mph - -   Scattered Clouds
6:00 PM 71.6 °F 50.0 °F 46% 29.95 in 6.2 mi West 4.6 mph - N/A   Mostly Cloudy
6:30 PM 71.6 °F 51.8 °F 50% 29.95 in 6.2 mi NNW 3.5 mph - N/A   Mostly Cloudy
7:00 PM 71.6 °F 51.8 °F 50% 29.98 in 6.2 mi NNW 3.5 mph - N/A   Mostly Cloudy
7:30 PM 69.8 °F 51.8 °F 53% 29.98 in 6.2 mi North 5.8 mph - N/A   Mostly Cloudy
8:00 PM 69.8 °F 51.8 °F 53% 29.98 in 6.2 mi NE 5.8 mph - N/A   Mostly Cloudy
8:30 PM 68.0 °F 51.8 °F 56% 29.98 in 6.2 mi ENE 6.9 mph - N/A   Mostly Cloudy
9:00 PM 67 °F 52 °F 48% 29.95 in 6 mi ENE 5.8 mph - -   Scattered Clouds
9:00 PM 68.0 °F 51.8 °F 56% 29.98 in 6.2 mi ENE 5.8 mph - N/A   Mostly Cloudy
9:30 PM 66.2 °F 51.8 °F 60% 29.98 in 6.2 mi East 5.8 mph - N/A   Mostly Cloudy
10:00 PM 66.2 °F 53.6 °F 64% 29.98 in 6.2 mi East 5.8 mph - N/A   Mostly Cloudy
10:30 PM 64.4 °F 53.6 °F 68% 29.98 in 6.2 mi East 5.8 mph - N/A   Mostly Cloudy
11:00 PM 64.4 °F 53.6 °F 68% 29.98 in 6.2 mi East 5.8 mph - N/A   Mostly Cloudy
11:30 PM 64.4 °F 53.6 °F 68% 29.98 in 6.2 mi East 4.6 mph - N/A   Mostly Cloudy